CW2654 Weather Reports


Display with metric or nautical units.
time (UTC)temp
F
wind
direction
speed
MPH
gust
MPH
rain 1hr
in
rain 24hr
in
rain mn
in
humidity
%
barometer
mb
20260509011604 62 352 0.0 3.0 0.00 0.00 0.00 58 1021.4
20260509010059 63 0 0.0 3.0 0.00 0.00 0.00 59 1021.5
20260509004555 63 0 1.0 5.0 0.00 0.00 0.00 58 1021.6
20260509003057 63 0 0.0 4.0 0.00 0.00 0.00 61 1021.7
20260509001552 63 0 0.0 4.0 0.00 0.00 0.00 60 1021.7
20260509000055 62 360 0.0 5.0 0.00 0.00 0.00 60 1021.7
20260508234557 63 311 0.0 6.0 0.00 0.00 0.00 59 1021.7
20260508233104 63 330 2.0 6.0 0.00 0.00 0.00 59 1021.5
20260508231613 63 286 0.0 5.0 0.00 0.00 0.00 61 1021.6
20260508230057 63 0 1.0 4.0 0.00 0.00 0.00 56 1021.6
20260508224607 63 308 1.0 7.0 0.00 0.00 0.00 58 1021.6
20260508223059 63 194 1.0 10.0 0.00 0.00 0.00 54 1021.9
20260508221558 63 130 1.0 6.0 0.00 0.00 0.00 54 1021.8
20260508220106 63 300 2.0 5.0 0.00 0.00 0.00 60 1021.8
20260508214603 63 315 0.0 8.0 0.00 0.00 0.00 56 1021.9
20260508213058 63 272 2.0 10.0 0.00 0.00 0.00 56 1021.9
20260508211603 64 338 1.0 9.0 0.00 0.00 0.00 61 1021.8
20260508210054 64 223 3.0 9.0 0.00 0.00 0.00 55 1021.9
20260508204555 62 234 2.0 8.0 0.00 0.00 0.00 59 1021.8
20260508203054 61 205 2.0 9.0 0.00 0.00 0.00 61 1022.0
20260508201554 61 360 1.0 9.0 0.00 0.00 0.00 64 1021.9
20260508200055 60 88 3.0 9.0 0.00 0.00 0.00 61 1021.9
20260508194605 59 181 2.0 8.0 0.00 0.00 0.00 64 1021.8
20260508193114 58 220 2.0 8.0 0.00 0.00 0.00 66 1022.1
20260508191605 56 287 4.0 14.0 0.00 0.00 0.00 66 1022.2
20260508190113 57 171 3.0 10.0 0.00 0.00 0.00 67 1022.3
20260508184618 56 348 2.0 10.0 0.00 0.00 0.00 73 1022.2
20260508183100 55 255 4.0 12.0 0.00 0.00 0.00 72 1022.1
20260508181605 56 246 0.0 5.0 0.00 0.00 0.00 73 1021.7
20260508180106 55 215 3.0 11.0 0.00 0.00 0.00 72 1021.9
20260508174556 55 224 3.0 10.0 0.00 0.00 0.00 73 1021.6
20260508173053 54 141 2.0 10.0 0.00 0.00 0.00 76 1021.4
20260508171557 54 168 3.0 8.0 0.00 0.00 0.00 76 1021.2
20260508170058 53 181 3.0 8.0 0.00 0.00 0.00 76 1021.0
20260508164554 52 227 5.0 10.0 0.00 0.00 0.00 80 1021.0
20260508163104 51 197 4.0 9.0 0.00 0.00 0.00 80 1020.6
20260508161557 49 150 2.0 6.0 0.00 0.00 0.00 83 1020.5
20260508160054 48 0 1.0 7.0 0.00 0.00 0.00 84 1020.4
20260508154556 48 0 2.0 10.0 0.00 0.00 0.00 84 1020.7
20260508153104 48 128 2.0 8.0 0.00 0.00 0.00 84 1020.9
20260508151556 48 134 1.0 5.0 0.00 0.00 0.00 85 1021.1
20260508150052 48 230 2.0 12.0 0.00 0.00 0.00 85 1021.1
20260508144550 48 239 7.0 16.0 0.00 0.00 0.00 84 1021.3
20260508143114 48 243 1.0 9.0 0.00 0.00 0.00 85 1020.9
20260508141559 48 0 1.0 10.0 0.00 0.00 0.00 85 1020.6
20260508140110 49 0 0.0 0.0 0.00 0.00 0.00 84 1020.1
20260508134552 49 0 0.0 2.0 0.00 0.00 0.00 82 1019.8
20260508133102 49 0 0.0 9.0 0.00 0.00 0.00 80 1019.6
20260508131552 49 0 0.0 1.0 0.00 0.00 0.00 79 1019.4
20260508130054 49 0 0.0 2.0 0.00 0.00 0.00 79 1019.2
20260508124554 49 0 0.0 0.0 0.00 0.00 0.00 81 1019.0
20260508123052 49 0 0.0 0.0 0.00 0.00 0.00 80 1019.0
20260508121550 48 0 0.0 5.0 0.00 0.00 0.00 82 1018.8
20260508120108 47 0 0.0 2.0 0.00 0.00 0.00 87 1018.7
20260508114600 46 0 0.0 0.0 0.00 0.00 0.00 91 1018.5
20260508113109 46 0 0.0 0.0 0.00 0.00 0.00 91 1018.3
20260508111551 46 0 0.0 0.0 0.00 0.00 0.00 91 1018.0
20260508104552 46 0 0.0 0.0 0.00 0.00 0.00 90 1017.8
20260508103058 46 0 0.0 0.0 0.00 0.00 0.00 90 1017.6
20260508101556 45 0 0.0 1.0 0.00 0.00 0.00 91 1017.5
20260508100125 45 128 0.0 1.0 0.00 0.00 0.00 90 1017.5
20260508094631 44 0 0.0 4.0 0.00 0.00 0.00 91 1017.4
20260508093053 44 80 1.0 6.0 0.00 0.00 0.00 91 1017.2
20260508091611 44 122 1.0 4.0 0.00 0.00 0.00 92 1017.1
20260508090053 44 111 1.0 4.0 0.00 0.00 0.00 92 1017.1
20260508084556 44 104 0.0 2.0 0.00 0.00 0.00 92 1017.0
20260508083056 44 107 1.0 3.0 0.00 0.00 0.00 91 1016.9
20260508081610 44 101 1.0 3.0 0.00 0.00 0.00 91 1016.8
20260508080059 45 102 0.0 2.0 0.00 0.00 0.00 91 1016.8
20260508074559 45 0 1.0 3.0 0.00 0.00 0.00 91 1016.8
20260508073102 45 107 1.0 4.0 0.00 0.00 0.00 91 1016.8
20260508071554 45 107 2.0 4.0 0.00 0.00 0.00 91 1016.8
20260508070052 45 99 1.0 4.0 0.00 0.00 0.00 90 1016.9
20260508064556 46 103 1.0 4.0 0.00 0.00 0.00 90 1016.9
20260508063058 46 103 2.0 6.0 0.00 0.00 0.00 90 1017.0
20260508061552 46 105 1.0 4.0 0.00 0.00 0.00 90 1017.0
20260508060111 46 109 2.0 4.0 0.00 0.00 0.00 90 1017.1
20260508054639 47 105 2.0 4.0 0.00 0.00 0.00 90 1017.1
20260508053053 47 98 2.0 4.0 0.00 0.00 0.00 89 1017.1
20260508051552 48 90 2.0 3.0 0.00 0.00 0.00 88 1017.1
20260508050053 48 105 2.0 4.0 0.00 0.00 0.00 88 1017.1
20260508044551 49 107 2.0 6.0 0.00 0.00 0.00 88 1017.1
20260508043058 50 110 2.0 4.0 0.00 0.00 0.00 87 1017.0
20260508041554 50 105 2.0 4.0 0.00 0.00 0.00 85 1017.0
20260508040055 52 108 0.0 3.0 0.00 0.00 0.00 84 1016.7
20260508034553 53 107 1.0 4.0 0.00 0.00 0.00 82 1016.4
20260508033049 54 100 1.0 4.0 0.00 0.00 0.00 80 1016.3
20260508031601 56 0 0.0 2.0 0.00 0.00 0.00 77 1016.2
20260508030104 58 0 0.0 2.0 0.00 0.00 0.00 74 1016.3
20260508024604 60 0 0.0 2.0 0.00 0.00 0.00 69 1016.2
20260508023057 62 0 0.0 1.0 0.00 0.00 0.00 63 1016.4
20260508021558 63 0 0.0 0.0 0.00 0.00 0.00 59 1016.5
20260508020104 63 0 0.0 0.0 0.00 0.00 0.00 55 1016.6
20260508014602 63 0 0.0 0.0 0.00 0.00 0.00 53 1016.7
20260508013051 64 0 0.0 3.0 0.00 0.00 0.00 54 1016.5